Location: Lane
(33.5226°N, 79.8788°W)
Time: 11:16:58
(UTC+00:00)

Altair - Pass Details

Date: 12 October 2022
Orbit: 1501 x 1682 km, 47.2° (Epoch: 30 November)

Event Time Altitude Azimuth Distance (km) Brightness Sun altitude
Rises 08:41:13 0° 259° (W) 4,700 - -34.0°
Reaches altitude 10° 08:44:24 10° 265° (W) 3,741 - -33.4°
Exits shadow 08:52:08 46° 315° (NW) 2,047 7.8 -31.8°
Maximum altitude 08:53:31 49° 338° (NNW) 1,995 7.9 -31.6°
Drops below altitude 10° 09:03:02 10° 52° (NE) 3,885 10.3 -29.6°
Sets 09:06:25 0° 58° (ENE) 4,894 11.2 -28.9°
